Weather History for Clinton, MO

Change the Weather History Date:

Wednesday, March 6, 2013

  Actual Average (KSZL) Record (KSZL)
Temperature  
Mean Temperature 30 °F -  
Max Temperature 33 °F 46 °F 95 °F (2006)
Min Temperature 26 °F 27 °F 21 °F (2001)
Degree Days  
Heating Degree Days 36    
Moisture  
Dew Point 22 °F    
Average Humidity 71    
Maximum Humidity 80    
Minimum Humidity 64    
Precipitation  
Precipitation 0.00 in - - ()
Sea Level Pressure  
Sea Level Pressure 30.37 in    
Wind  
Wind Speed 9 mph (NNW)    
Max Wind Speed 21 mph    
Max Gust Speed 25 mph    
Visibility 10 miles    
Events      
Averages and records for this station are not official NWS values.
T = Trace of Precipitation, MM = Missing Value Source: NWS Daily Summary

Daily Weather History Graph

Daily Weather History Graph

Search for Another Location

Airport:

Trip Planner

Search our weather history database for the weather conditions in past years. The results will help you decide how hot, cold, wet, or windy it might be!

Date:

Astronomy

Mar. 06, 2013 Rise Set
Actual Time 6:39 AM CST 6:13 PM CST
Civil Twilight 6:12 AM CST 6:39 PM CST
Nautical Twilight 5:42 AM CST 7:10 PM CST
Astronomical Twilight 5:11 AM CST 7:41 PM CST
Moon 2:45 AM CST (3/6) 12:59 PM CST (3/6)
Length of Visible Light 12h 27m
Length of Day
11h 34m
Waning Crescent, 29% of the Moon is Illuminated
Mar 6
Waning Crescent
Mar 11
New
Mar 19
First Quarter
Mar 27
Full
Apr 2
Last Quarter

Hourly Weather History & Observations

Time (CST) Temp. Windchill Dew Point Humidity Pressure Visibility Wind Dir Wind Speed Gust Speed Precip Events Conditions
12:15 AM 32.0 °F 19.8 °F 21.2 °F 64% 30.32 in 10.0 mi North 20.7 mph - N/A   Overcast
12:55 AM 32.0 °F 24.2 °F 21.2 °F 64% 30.34 in 10.0 mi NW 9.2 mph - N/A   Overcast
1:15 AM 32.0 °F 22.5 °F 21.2 °F 64% 30.35 in 10.0 mi NW 12.7 mph 16.1 mph N/A   Mostly Cloudy
1:35 AM 30.2 °F 18.9 °F 21.2 °F 69% 30.35 in 10.0 mi NNW 16.1 mph - N/A   Scattered Clouds
1:55 AM 30.2 °F 19.3 °F 19.4 °F 64% 30.35 in 10.0 mi NNW 15.0 mph 19.6 mph N/A   Partly Cloudy
2:15 AM 28.4 °F 17.0 °F 19.4 °F 69% 30.35 in 10.0 mi NNW 15.0 mph - N/A   Partly Cloudy
2:35 AM 28.4 °F 17.0 °F 19.4 °F 69% 30.35 in 10.0 mi NNW 15.0 mph 21.9 mph N/A   Mostly Cloudy
2:55 AM 30.2 °F 19.8 °F 21.2 °F 69% 30.35 in 10.0 mi NNW 13.8 mph - N/A   Overcast
3:15 AM 30.2 °F 18.1 °F 19.4 °F 64% 30.36 in 10.0 mi NNW 18.4 mph 23.0 mph N/A   Overcast
3:35 AM 30.2 °F 19.8 °F 21.2 °F 69% 30.36 in 10.0 mi North 13.8 mph 25.3 mph N/A   Overcast
3:55 AM 30.2 °F 19.3 °F 21.2 °F 69% 30.36 in 10.0 mi NNW 15.0 mph 19.6 mph N/A   Overcast
4:15 AM 30.2 °F 19.8 °F 21.2 °F 69% 30.37 in 10.0 mi North 13.8 mph - N/A   Overcast
4:35 AM 30.2 °F 20.2 °F 21.2 °F 69% 30.38 in 10.0 mi North 12.7 mph - N/A   Overcast
4:55 AM 30.2 °F 20.8 °F 21.2 °F 69% 30.38 in 10.0 mi North 11.5 mph - N/A   Overcast
5:55 AM 28.4 °F 22.2 °F 19.4 °F 69% 30.40 in 10.0 mi NW 5.8 mph - N/A   Mostly Cloudy
6:15 AM 28.4 °F 22.2 °F 19.4 °F 69% 30.40 in 10.0 mi NW 5.8 mph - N/A   Partly Cloudy
6:35 AM 26.6 °F 20.0 °F 19.4 °F 74% 30.41 in 10.0 mi NW 5.8 mph - N/A   Clear
6:55 AM 26.6 °F 20.0 °F 19.4 °F 74% 30.41 in 10.0 mi NW 5.8 mph - N/A   Partly Cloudy
7:15 AM 26.6 °F 19.1 °F 19.4 °F 74% 30.42 in 10.0 mi NW 6.9 mph - N/A   Clear
7:35 AM 26.6 °F 19.1 °F 19.4 °F 74% 30.42 in 10.0 mi NW 6.9 mph - N/A   Clear
7:55 AM 28.4 °F 21.2 °F 19.4 °F 69% 30.42 in 10.0 mi NNW 6.9 mph - N/A   Clear
8:15 AM 28.4 °F 22.2 °F 19.4 °F 69% 30.43 in 9.0 mi NNW 5.8 mph - N/A   Clear
8:35 AM 28.4 °F 19.7 °F 21.2 °F 74% 30.43 in 10.0 mi NNW 9.2 mph - N/A   Clear
8:55 AM 30.2 °F 21.9 °F 21.2 °F 69% 30.43 in 10.0 mi North 9.2 mph - N/A   Clear
9:15 AM 30.2 °F 20.2 °F 21.2 °F 69% 30.42 in 10.0 mi North 12.7 mph - N/A   Clear
9:35 AM 30.2 °F 21.9 °F 21.2 °F 69% 30.43 in 10.0 mi North 9.2 mph - N/A   Clear
9:55 AM 30.2 °F 21.9 °F 21.2 °F 69% 30.43 in 10.0 mi North 9.2 mph - N/A   Clear
10:15 AM 32.0 °F 24.2 °F 21.2 °F 64% 30.43 in 10.0 mi North 9.2 mph - N/A   Clear
10:35 AM 32.0 °F 24.8 °F 23.0 °F 69% 30.43 in 10.0 mi North 8.1 mph - N/A   Clear
10:55 AM 32.0 °F 27.5 °F 21.2 °F 64% 30.42 in 9.0 mi NNE 4.6 mph - N/A   Clear
11:15 AM 32.0 °F 25.6 °F 23.0 °F 69% 30.42 in 10.0 mi NNW 6.9 mph - N/A   Clear
11:35 AM 32.0 °F 27.5 °F 23.0 °F 69% 30.42 in 10.0 mi North 4.6 mph - N/A   Partly Cloudy
11:55 AM 32.0 °F - 21.2 °F 64% 30.43 in 9.0 mi Calm Calm - N/A   Clear
12:15 PM 32.0 °F 26.4 °F 21.2 °F 64% 30.43 in 9.0 mi NW 5.8 mph - N/A   Clear
12:35 PM 32.0 °F 26.4 °F 23.0 °F 69% 30.43 in 10.0 mi WNW 5.8 mph - N/A   Clear
12:55 PM 32.0 °F - 23.0 °F 69% 30.42 in 10.0 mi Calm Calm - N/A   Clear
1:15 PM 32.0 °F - 23.0 °F 69% 30.41 in 10.0 mi Calm Calm - N/A   Clear
1:35 PM 32.0 °F 26.4 °F 23.0 °F 69% 30.40 in 10.0 mi NNW 5.8 mph - N/A   Clear
1:55 PM 33.8 °F 30.8 °F 23.0 °F 65% 30.40 in 10.0 mi North 3.5 mph - N/A   Clear
2:15 PM 33.8 °F - 23.0 °F 65% 30.39 in 10.0 mi Calm Calm - N/A   Clear
2:35 PM 33.8 °F 30.8 °F 23.0 °F 65% 30.39 in 10.0 mi NNW 3.5 mph - N/A   Clear
2:55 PM 33.8 °F 29.6 °F 23.0 °F 65% 30.39 in 10.0 mi North 4.6 mph - N/A   Clear
3:15 PM 33.8 °F 28.6 °F 23.0 °F 65% 30.37 in 10.0 mi North 5.8 mph - N/A   Clear
3:35 PM 33.8 °F 28.6 °F 23.0 °F 65% 30.37 in 9.0 mi NNW 5.8 mph - N/A   Clear
3:55 PM 33.8 °F 28.6 °F 23.0 °F 65% 30.37 in 10.0 mi NNW 5.8 mph - N/A   Clear
4:15 PM 33.8 °F 30.8 °F 23.0 °F 65% 30.36 in 9.0 mi NNW 3.5 mph - N/A   Clear
4:35 PM 33.8 °F 28.6 °F 24.8 °F 70% 30.36 in 10.0 mi NNW 5.8 mph - N/A   Clear
4:55 PM 33.8 °F - 24.8 °F 70% 30.34 in 10.0 mi Calm Calm - N/A   Clear
5:15 PM 33.8 °F - 26.6 °F 75% 30.34 in 10.0 mi Calm Calm - N/A   Clear
5:35 PM 32.0 °F - 24.8 °F 75% 30.34 in 10.0 mi Calm Calm - N/A   Clear
5:55 PM 32.0 °F - 24.8 °F 75% 30.34 in 10.0 mi Calm Calm - N/A   Clear
6:15 PM 32.0 °F - 23.0 °F 69% 30.34 in 9.0 mi Calm Calm - N/A   Clear
6:35 PM 30.2 °F - 23.0 °F 75% 30.33 in 10.0 mi Calm Calm - N/A   Clear
6:55 PM 30.2 °F 26.7 °F 23.0 °F 75% 30.33 in 10.0 mi ENE 3.5 mph - N/A   Clear
7:15 PM 30.2 °F - 23.0 °F 75% 30.33 in 10.0 mi Calm Calm - N/A   Clear
7:35 PM 30.2 °F - 23.0 °F 75% 30.33 in 10.0 mi Calm Calm - N/A   Clear
7:55 PM 30.2 °F - 23.0 °F 75% 30.32 in 10.0 mi Calm Calm - N/A   Clear
8:15 PM 28.4 °F - 23.0 °F 80% 30.32 in 10.0 mi Calm Calm - N/A   Clear
8:35 PM 28.4 °F - 23.0 °F 80% 30.33 in 10.0 mi Calm Calm - N/A   Clear
8:55 PM 28.4 °F - 23.0 °F 80% 30.33 in 10.0 mi Calm Calm - N/A   Clear
9:15 PM 28.4 °F 22.2 °F 21.2 °F 74% 30.32 in 10.0 mi ENE 5.8 mph - N/A   Clear
9:35 PM 26.6 °F - 21.2 °F 80% 30.32 in 10.0 mi Calm Calm - N/A   Clear
9:55 PM 26.6 °F - 21.2 °F 80% 30.32 in 10.0 mi Calm Calm - N/A   Clear
10:15 PM 26.6 °F 21.2 °F 21.2 °F 80% 30.32 in 10.0 mi East 4.6 mph - N/A   Clear
10:35 PM 26.6 °F 21.2 °F 21.2 °F 80% 30.32 in 10.0 mi East 4.6 mph - N/A   Clear
10:55 PM 26.6 °F - 21.2 °F 80% 30.31 in 10.0 mi Calm Calm - N/A   Clear
11:15 PM 26.6 °F - 21.2 °F 80% 30.31 in 10.0 mi Calm Calm - N/A   Clear
11:35 PM 26.6 °F - 21.2 °F 80% 30.31 in 10.0 mi Calm Calm - N/A   Clear